Theta_e
313 314 315 315 316 316 316 317 316 317 316 315 314 314 313 314 315 315 316 315 313 313 312 312 311 312 311 310 310 310 308 308 305 308 310 310 309 310 311 311 311 310 310
312 313 313 315 315 315 315 316 316 315 316 314 314 313 313 313 315 315 314 313 313 312 312 311 311 310 310 311 310 309 308 309 307 305 308 308 309 310 310 309 308 308 308
311 311 312 313 314 314 314 315 315 314 314 314 313 312 312 313 314 315 314 314 313 313 313 311 311 311 309 310 309 309 308 307 307 305 305 308 308 309 308 308 307 306 305
311 311 311 312 313 314 314 314 313 313 313 313 313 312 314 313 314 315 314 314 313 313 313 312 311 311 310 310 309 308 308 307 306 305 305 306 307 308 307 304 303 305 303
310 310 310 312 313 313 313 314 313 313 312 313 312 312 314 314 313 315 314 314 313 312 312 311 311 311 312 312 309 309 308 306 307 306 305 306 306 306 304 305 303 302 302
309 309 310 311 312 313 313 313 313 313 312 312 313 313 314 312 312 312 314 314 313 312 311 311 310 309 309 310 310 310 310 308 307 307 306 305 305 306 305 303 298 296 296
308 309 310 310 310 312 312 312 313 313 312 313 313 313 314 315 312 312 311 316 315 313 312 311 309 307 309 309 309 309 310 310 310 310 307 306 305 304 304 299 296 298 296
308 309 310 310 310 311 311 312 312 313 314 314 314 314 314 314 313 312 311 314 315 314 312 312 310 308 308 309 309 309 309 310 311 309 308 307 306 305 304 301 298 296 296
308 308 309 310 310 311 312 313 313 313 314 314 314 314 314 314 312 311 311 312 313 313 312 312 311 310 310 309 307 306 307 307 307 305 305 304 302 298 298 298 295 293 292
309 309 310 310 310 310 313 314 314 313 314 314 313 314 313 314 311 311 311 313 312 311 311 310 308 311 310 308 306 306 305 306 305 303 303 301 298 296 295 295 294 291 291
309 309 309 310 310 310 312 314 313 313 312 313 312 313 314 313 314 310 310 312 312 311 310 309 309 308 308 308 307 308 307 308 304 303 302 300 298 296 295 295 294 293 291
308 308 309 310 309 308 310 312 311 311 311 311 311 311 312 313 310 310 310 310 312 311 310 310 309 306 306 307 308 308 306 303 303 301 299 297 296 294 294 294 294 294 294
307 308 309 310 310 309 309 309 309 310 309 309 309 309 310 310 311 309 310 311 311 311 313 310 307 306 306 307 308 307 304 302 301 299 297 296 295 295 294 293 293 293 293
305 308 309 309 309 310 308 308 308 308 308 308 308 307 309 309 309 310 310 311 310 310 308 307 305 306 306 306 306 304 303 303 300 298 297 296 294 292 291 293 291 292 290
304 306 308 309 309 309 309 309 308 309 309 309 309 309 308 308 309 308 309 310 311 309 306 304 303 304 303 303 302 302 302 299 296 296 295 293 292 291 291 292 291 290 287
303 304 306 308 309 309 309 309 305 304 304 304 304 307 309 308 307 306 307 307 307 306 305 303 302 302 301 300 300 301 299 297 296 295 293 293 291 290 290 290 290 289 287
302 303 305 305 307 308 308 308 308 308 302 303 303 304 305 305 305 305 305 305 306 304 305 303 302 301 300 300 299 299 297 296 296 294 292 292 291 291 289 289 289 288 287
303 302 304 305 306 307 307 308 308 307 307 309 305 304 304 304 304 303 304 304 302 303 306 303 302 301 300 300 299 298 297 295 294 293 292 291 291 290 289 288 288 288 288
303 304 305 306 306 305 306 306 306 306 306 306 308 304 304 304 304 304 304 306 303 302 305 303 303 301 301 300 298 297 296 294 293 292 291 291 291 290 289 289 289 287 287
303 302 301 304 304 305 305 305 305 305 305 305 305 305 306 303 303 303 304 305 306 304 305 303 302 301 300 299 297 296 294 292 292 291 291 291 290 290 289 288 288 287 287
303 303 303 304 304 304 304 304 305 305 305 305 305 305 304 304 304 303 302 304 305 304 304 302 301 299 298 297 295 294 293 292 292 291 291 290 290 288 289 289 288 288 287
303 303 303 304 304 303 304 304 304 304 304 304 304 303 300 303 304 303 303 303 303 304 302 300 298 297 296 295 294 293 292 291 292 291 291 290 290 289 289 288 288 288 287
302 303 302 303 303 303 303 303 303 303 303 303 303 301 300 301 302 302 302 301 300 299 299 298 297 296 295 295 294 294 292 292 292 292 290 289 289 289 289 288 288 287 287
302 302 302 302 302 303 303 302 303 300 301 302 301 301 301 301 300 300 300 299 298 297 297 297 296 294 293 292 293 293 293 293 292 292 291 290 289 289 289 289 288 288 287
301 301 301 301 301 301 301 300 301 301 300 300 299 299 300 301 299 299 298 298 297 296 295 294 293 291 291 291 291 291 290 289 290 291 291 290 290 289 289 289 288 287 286
298 300 300 300 300 300 299 298 298 298 297 298 297 298 299 298 298 297 297 296 295 293 292 292 292 292 291 291 291 290 288 288 289 289 290 290 289 288 288 288 287 287 286
Wind_Speed
17 17 17 17 18 17 16 16 16 14 14 14 14 13 13 14 13 13 13 12 13 12 11 11 12 10 8 7 7 7 7 7 9 7 5 6 9 8 8 8 8 8 8
16 16 18 17 17 17 18 17 16 17 16 15 15 15 15 15 14 15 14 13 14 14 13 12 12 9 11 10 8 10 9 9 8 11 7 6 8 8 8 10 8 7 9
15 16 16 17 17 18 19 17 17 17 17 17 17 17 16 16 15 15 15 15 15 14 14 14 13 13 12 10 10 9 9 7 8 8 7 6 6 6 7 9 8 8 7
15 16 17 18 18 18 18 18 18 18 18 18 18 18 16 17 17 16 16 15 15 13 13 14 14 14 14 13 11 11 9 8 8 8 8 8 6 5 5 8 8 7 8
14 16 18 18 17 17 17 17 17 18 17 18 18 18 16 16 13 17 16 16 15 14 14 14 14 14 15 12 9 11 11 9 8 8 8 7 6 5 6 5 7 8 9
13 16 16 16 17 17 16 17 17 17 19 18 18 17 17 13 17 19 17 15 15 15 14 15 13 13 13 15 15 10 11 11 10 8 8 8 8 4 4 6 5 6 5
12 14 15 15 16 16 16 17 17 18 18 18 18 18 19 19 20 24 23 14 14 15 16 14 13 11 14 14 18 17 16 15 13 8 10 8 7 5 5 5 6 7 7
11 13 14 15 17 17 16 16 17 16 17 17 17 18 18 16 20 26 26 18 14 16 16 16 15 15 16 15 14 14 14 13 13 10 10 8 6 5 5 5 6 7 7
12 12 12 13 14 15 16 16 16 15 15 15 15 16 18 17 20 25 23 18 16 16 15 15 16 16 17 19 14 13 13 11 6 6 5 1 4 3 2 4 5 4 5
15 13 12 12 13 15 14 14 14 14 15 12 15 16 20 19 19 26 25 14 17 13 14 15 16 16 18 23 16 14 13 12 10 8 8 7 7 6 7 6 4 5 4
16 15 13 12 13 14 13 12 13 13 13 14 16 16 18 19 18 27 30 18 15 14 13 13 12 20 21 24 20 13 12 10 11 9 8 6 6 6 5 5 5 5 5
17 16 15 12 9 9 12 11 12 12 13 13 14 13 12 16 22 25 32 34 23 17 16 13 13 25 22 23 19 12 11 9 7 7 7 8 7 6 6 5 6 6 6
18 17 15 13 10 8 9 10 9 11 10 11 10 10 10 9 12 21 27 32 30 18 13 14 17 24 22 18 20 16 16 9 8 8 9 8 7 6 6 5 5 6 7
19 18 14 13 11 9 6 7 8 9 10 10 10 10 9 9 10 9 12 15 25 15 9 10 15 17 17 13 14 12 10 10 10 9 7 6 5 5 5 4 5 5 5
18 17 15 10 11 10 8 7 8 10 10 9 10 9 9 10 10 12 13 13 14 15 13 10 11 11 12 11 11 11 10 10 9 8 7 7 7 6 5 5 5 5 5
16 13 13 11 10 8 9 9 12 14 9 13 13 11 9 12 8 16 17 15 18 22 13 12 13 13 13 12 12 11 11 12 10 9 8 8 7 7 6 6 5 6 6
16 16 13 13 10 10 9 9 10 6 13 15 17 18 16 15 9 12 17 15 17 23 14 13 13 13 12 12 11 11 11 11 11 9 9 8 7 7 6 6 6 6 6
17 16 13 11 11 10 9 9 9 9 9 7 12 15 16 16 12 13 16 14 12 19 13 13 13 13 12 12 11 10 10 10 10 10 9 9 8 7 7 6 7 7 6
15 12 12 11 11 11 10 10 9 10 9 9 6 7 11 12 15 16 21 12 13 14 14 11 11 11 11 11 10 9 10 10 10 10 9 9 8 7 7 7 7 8 7
16 18 16 12 11 11 10 10 10 10 10 9 8 8 5 7 9 11 12 12 11 12 13 11 11 10 11 10 10 9 9 10 10 10 9 9 9 8 8 8 7 6 6
13 15 18 11 12 11 11 11 11 10 10 9 9 7 11 10 9 10 11 11 10 10 11 11 10 9 9 9 10 10 10 9 10 9 8 8 8 8 8 7 7 6 6
13 14 14 12 11 11 11 10 9 10 11 10 9 7 13 10 8 9 10 10 9 8 7 8 8 8 9 9 10 10 9 9 8 9 8 7 8 8 8 8 8 8 7
14 15 14 13 12 13 10 10 10 11 11 11 9 9 9 10 9 9 9 9 9 9 8 8 9 8 8 8 8 8 9 8 8 8 8 7 8 8 8 9 8 8 7
14 16 16 14 12 12 11 11 10 12 11 10 10 9 9 10 10 10 9 9 9 9 9 9 8 11 10 8 7 7 7 6 7 7 9 8 8 9 8 8 8 9 7
12 14 14 13 12 12 11 11 11 10 10 10 9 8 8 9 9 9 9 9 10 10 10 9 8 12 13 12 11 11 11 12 8 7 6 8 9 10 9 8 9 8 8
12 13 12 10 10 9 9 7 7 7 6 5 6 7 9 8 9 9 9 10 9 9 11 8 10 13 14 10 11 11 12 13 10 11 6 6 7 6 7 8 11 7 7
Wind_Direction
216 216 217 215 213 214 217 216 214 214 211 211 208 207 209 212 209 209 214 208 210 211 205 208 209 205 206 206 211 219 226 231 253 272 279 284 299 305 313 319 314 314 309
221 219 220 221 216 215 217 216 213 213 211 211 209 212 211 214 211 211 212 209 209 211 206 207 209 201 211 209 207 214 221 224 245 265 280 285 283 297 302 307 313 312 311
216 218 221 219 218 219 220 217 213 214 213 209 210 212 212 213 212 212 215 211 213 214 210 206 206 201 208 207 211 214 216 226 230 252 267 275 276 284 299 302 307 307 307
220 217 220 222 218 218 218 216 214 213 214 212 211 211 211 210 212 210 212 215 215 216 214 213 210 205 210 207 209 214 214 216 222 235 252 263 265 278 289 294 312 318 317
233 223 219 218 220 220 221 219 217 216 218 216 212 214 211 210 209 206 206 209 213 212 213 214 216 212 210 213 205 208 209 213 218 226 243 253 254 266 280 303 290 323 311
246 240 237 229 217 215 217 216 215 213 216 217 214 213 210 210 204 199 198 203 208 212 212 213 214 203 207 212 212 232 215 210 218 225 240 249 261 284 280 281 300 307 319
260 254 246 235 233 222 216 214 212 213 214 216 215 211 212 212 198 196 197 200 202 209 212 208 207 206 203 205 212 217 224 229 243 246 242 249 263 264 256 283 274 278 284
272 263 255 244 234 230 229 227 225 222 219 214 215 215 216 216 198 197 197 208 208 212 211 208 206 202 200 200 203 208 218 216 219 218 241 257 257 255 256 286 298 296 290
297 279 267 260 253 245 234 221 217 221 222 221 221 218 218 221 201 197 190 204 211 211 208 206 205 204 195 193 196 205 210 214 196 225 253 277 154 139 252 252 262 292 306
329 310 291 269 258 250 242 234 225 218 220 216 218 219 219 222 199 195 194 204 208 207 203 205 204 202 181 187 198 200 206 206 194 190 188 180 187 178 189 244 262 262 278
322 312 301 284 265 255 254 238 233 232 226 217 217 217 220 216 216 196 198 209 207 205 202 199 195 200 182 189 197 200 205 190 189 196 200 202 204 210 212 214 224 242 254
325 314 306 297 282 267 254 246 239 233 229 229 229 229 224 221 216 199 200 207 204 206 204 197 193 183 186 188 187 190 163 169 181 193 198 206 210 208 210 214 223 240 248
320 319 314 307 293 272 259 250 242 235 236 238 234 235 232 224 231 220 207 209 213 212 205 194 173 176 180 182 188 183 179 191 194 200 209 210 207 201 197 214 231 248 258
312 315 314 304 301 286 255 243 239 233 229 232 232 232 233 226 221 218 209 212 220 209 160 161 164 167 173 178 176 185 201 196 200 206 211 203 178 187 207 208 233 238 259
308 307 306 300 295 291 272 251 235 237 231 231 230 229 226 227 219 205 197 197 198 198 166 158 158 166 172 179 188 191 187 192 198 203 203 192 198 200 207 202 225 241 258
301 301 302 303 295 286 282 280 229 248 261 247 261 252 245 250 194 195 207 207 193 173 178 177 173 175 179 180 184 185 190 196 197 195 198 199 199 202 207 203 221 230 249
291 292 294 293 291 289 285 278 285 232 231 240 243 244 242 259 210 201 204 200 178 167 198 187 182 180 181 181 182 187 192 194 190 192 197 196 198 204 193 213 218 232 239
283 272 281 284 286 282 278 275 271 271 275 268 223 233 229 230 217 200 194 177 178 190 207 193 184 179 181 181 180 184 185 181 187 191 192 195 195 197 198 213 219 229 241
284 281 280 283 284 277 277 271 261 261 258 264 263 231 221 206 198 189 180 195 190 202 217 195 188 177 177 175 174 176 177 179 182 184 190 193 192 191 207 210 219 229 244
275 268 259 267 272 275 270 265 260 249 251 248 247 245 205 176 193 196 195 209 206 203 202 189 181 173 172 167 165 166 170 174 179 184 189 191 191 192 205 207 214 224 231
263 270 266 260 258 263 267 260 259 257 249 245 241 230 200 203 208 197 194 208 215 204 198 187 173 167 159 159 158 163 172 175 180 182 187 190 191 196 205 206 214 224 237
256 260 265 257 258 258 254 261 260 261 257 249 249 229 190 204 212 205 198 201 205 198 187 176 166 160 157 158 160 165 169 173 177 181 183 183 192 196 202 206 211 222 233
259 259 259 265 260 255 255 258 259 249 253 248 237 216 198 205 205 199 192 187 181 177 174 171 161 151 150 152 156 157 164 174 171 175 179 185 196 194 204 212 217 224 228
251 257 262 262 263 254 255 258 258 250 251 245 229 211 208 201 196 191 183 176 174 165 159 155 150 144 144 139 139 145 156 144 155 170 183 190 198 198 213 216 225 234 241
258 256 259 261 263 259 253 244 251 249 238 231 232 211 198 194 187 185 176 169 164 151 140 134 128 134 138 141 146 149 142 142 149 159 184 201 209 212 216 224 232 241 247
271 268 265 265 260 259 256 243 249 260 236 223 233 217 178 174 176 169 164 153 142 131 122 115 125 129 134 135 137 137 153 167 165 176 187 197 211 214 222 230 235 234 233